This is the latest recevied weather packets stored in our database for station/object DH1NAI-6. If no packets are shown the sender has not sent any weather packets the latest 10 day(s).
| Time | Temp. | Humidity | Pressure | Rain* | Wind** | Luminosity | Snow |
|---|---|---|---|---|---|---|---|
| 1778232720 | 7.78° C | 94% | 1015.9 hPa | 0 mm | - | 59 W/m² | - |
| 1778232113 | 7.78° C | 94% | 1016.1 hPa | 0 mm | - | 57 W/m² | - |
| 1778231504 | 7.78° C | 93% | 1015.9 hPa | 0 mm | - | 53 W/m² | - |
| 1778230892 | 8.33° C | 93% | 1016 hPa | 0 mm | - | 78 W/m² | - |
| 1778230289 | 7.78° C | 93% | 1015.8 hPa | 0 mm | - | 84 W/m² | - |
| 1778229680 | 7.22° C | 95% | 1015.7 hPa | 0 mm | - | 74 W/m² | - |
| 1778229056 | 7.22° C | 95% | 1015.8 hPa | 0 mm | - | 41 W/m² | - |
| 1778228432 | 7.22° C | 95% | 1015.8 hPa | 0 mm | - | 35 W/m² | - |
| 1778227824 | 7.22° C | 93% | 1015.7 hPa | 0 mm | - | 45 W/m² | - |
| 1778227217 | 6.67° C | 95% | 1015.6 hPa | 0 mm | - | 89 W/m² | - |
| 1778226608 | 6.11° C | 97% | 1015.7 hPa | 0 mm | - | 40 W/m² | - |
| 1778226001 | 6.11° C | 98% | 1015.6 hPa | 0 mm | - | 29 W/m² | - |
| 1778225392 | 6.67° C | 98% | 1015.5 hPa | 0 mm | - | 27 W/m² | - |
| 1778224785 | 6.67° C | 98% | 1015.7 hPa | 0 mm | - | 28 W/m² | - |
| 1778224172 | 6.67° C | 98% | 1015.3 hPa | 0 mm | - | 29 W/m² | - |
| 1778223569 | 6.11° C | 98% | 1015.3 hPa | 0 mm | - | 30 W/m² | - |
| 1778222960 | 6.11° C | 98% | 1015.2 hPa | 0 mm | - | 27 W/m² | - |
| 1778222336 | 6.11° C | 99% | 1015.2 hPa | 0 mm | - | 34 W/m² | - |
| 1778221713 | 5.56° C | 99% | 1015.1 hPa | 0 mm | - | 30 W/m² | - |
| 1778221104 | 5.56° C | 99% | 1015 hPa | 0 mm | - | 22 W/m² | - |
| 1778220480 | 5.56° C | 99% | 1014.9 hPa | 0 mm | - | 18 W/m² | - |
| 1778219857 | 5.56° C | 99% | 1014.8 hPa | 0 mm | - | 13 W/m² | - |
| 1778219252 | 5.56° C | 99% | 1014.8 hPa | 0 mm | - | 14 W/m² | - |
| 1778218641 | 5.56° C | 99% | 1014.5 hPa | 0 mm | - | 12 W/m² | - |
| 1778218016 | 5.56° C | 99% | 1014.7 hPa | 0 mm | - | 9 W/m² | - |
* Rain latest hour (hover to see other rain measurements)
** Current wind speed in m/s (hover to see current wind gust speed)